![]() |
EMODnet Physics ERDDAP
Easier access to scientific data |
log in|
Brought to you by EMODnet Physics |
| Dataset Title: | NDBC - Collection of dew point temperature (DEWT) TimeSeries - IN SITU MultiPointTimeSeriesObservation
|
| Institution: | NDBC (Dataset ID: TS_DEWT_NDBC) |
| Information: | Summary
| License
| FGDC
| ISO 19115
| Metadata
| Background
| Subset
| Data Access Form
| Make a graph
|
| Name | Last modified | Size | Description | |
|---|---|---|---|---|
| Parent Directory | - | - | ||
| 41043_TS_DEWT_012008.nc | 26-Oct-2024 11:33 | 451912 | ||
| 41043_TS_DEWT_012009.nc | 26-Oct-2024 11:33 | 449815 | ||
| 41043_TS_DEWT_012010.nc | 26-Oct-2024 11:33 | 429836 | ||
| 41043_TS_DEWT_012011.nc | 26-Oct-2024 11:33 | 450119 | ||
| 41043_TS_DEWT_012012.nc | 26-Oct-2024 11:33 | 429835 | ||
| 41043_TS_DEWT_012013.nc | 26-Oct-2024 11:33 | 439728 | ||
| 41043_TS_DEWT_012014.nc | 26-Oct-2024 11:33 | 429756 | ||
| 41043_TS_DEWT_012015.nc | 26-Oct-2024 11:33 | 450469 | ||
| 41043_TS_DEWT_012016.nc | 26-Oct-2024 11:33 | 434335 | ||
| 41043_TS_DEWT_012017.nc | 26-Oct-2024 11:33 | 429833 | ||
| 41043_TS_DEWT_012018.nc | 26-Oct-2024 11:34 | 1264842 | ||
| 41043_TS_DEWT_012019.nc | 26-Oct-2024 11:34 | 1265846 | ||
| 41043_TS_DEWT_012020.nc | 26-Oct-2024 11:34 | 1266164 | ||
| 41043_TS_DEWT_012021.nc | 26-Oct-2024 11:34 | 1259819 | ||
| 41043_TS_DEWT_012022.nc | 26-Oct-2024 11:34 | 1144206 | ||
| 41043_TS_DEWT_012023.nc | 26-Oct-2024 11:34 | 1264647 | ||
| 41043_TS_DEWT_012024.nc | 26-Oct-2024 11:34 | 5315158 | ||
| 41043_TS_DEWT_012025.nc | 07-Feb-2025 11:46 | 449514 | ||
| 41043_TS_DEWT_012026.nc | 02-Feb-2026 20:11 | 450226 | ||
| 41043_TS_DEWT_022008.nc | 26-Oct-2024 11:34 | 450382 | ||
| 41043_TS_DEWT_022009.nc | 26-Oct-2024 11:34 | 450143 | ||
| 41043_TS_DEWT_022010.nc | 26-Oct-2024 11:34 | 450335 | ||
| 41043_TS_DEWT_022011.nc | 26-Oct-2024 11:34 | 429492 | ||
| 41043_TS_DEWT_022012.nc | 26-Oct-2024 11:34 | 449155 | ||
| 41043_TS_DEWT_022013.nc | 26-Oct-2024 11:34 | 429492 | ||
| 41043_TS_DEWT_022014.nc | 26-Oct-2024 11:34 | 446935 | ||
| 41043_TS_DEWT_022015.nc | 26-Oct-2024 11:34 | 429332 | ||
| 41043_TS_DEWT_022016.nc | 26-Oct-2024 11:35 | 450157 | ||
| 41043_TS_DEWT_022017.nc | 26-Oct-2024 11:35 | 429472 | ||
| 41043_TS_DEWT_022018.nc | 26-Oct-2024 11:35 | 1002145 | ||
| 41043_TS_DEWT_022019.nc | 26-Oct-2024 11:35 | 1094607 | ||
| 41043_TS_DEWT_022020.nc | 26-Oct-2024 11:35 | 1114663 | ||
| 41043_TS_DEWT_022021.nc | 26-Oct-2024 11:35 | 1109019 | ||
| 41043_TS_DEWT_022022.nc | 26-Oct-2024 11:35 | 1111785 | ||
| 41043_TS_DEWT_022023.nc | 26-Oct-2024 11:35 | 995807 | ||
| 41043_TS_DEWT_022024.nc | 16-Sep-2024 16:51 | 1114974 | ||
| 41043_TS_DEWT_022025.nc | 01-Mar-2025 08:56 | 5323690 | ||
| 41043_TS_DEWT_022026.nc | 01-Mar-2026 11:41 | 450544 | ||
| 41043_TS_DEWT_032008.nc | 26-Oct-2024 11:35 | 438850 | ||
| 41043_TS_DEWT_032009.nc | 26-Oct-2024 11:35 | 451206 | ||
| 41043_TS_DEWT_032010.nc | 26-Oct-2024 11:35 | 452080 | ||
| 41043_TS_DEWT_032011.nc | 26-Oct-2024 11:35 | 439317 | ||
| 41043_TS_DEWT_032012.nc | 26-Oct-2024 11:36 | 429835 | ||
| 41043_TS_DEWT_032013.nc | 26-Oct-2024 11:36 | 450559 | ||
| 41043_TS_DEWT_032014.nc | 26-Oct-2024 11:36 | 429838 | ||
| 41043_TS_DEWT_032015.nc | 26-Oct-2024 11:36 | 433655 | ||
| 41043_TS_DEWT_032016.nc | 26-Oct-2024 11:36 | 429703 | ||
| 41043_TS_DEWT_032017.nc | 26-Oct-2024 11:36 | 451318 | ||
| 41043_TS_DEWT_032018.nc | 26-Oct-2024 11:36 | 429862 | ||
| 41043_TS_DEWT_032019.nc | 26-Oct-2024 11:36 | 1269777 | ||
| 41043_TS_DEWT_032020.nc | 26-Oct-2024 11:36 | 592659 | ||
| 41043_TS_DEWT_032021.nc | 26-Oct-2024 11:36 | 1267224 | ||
| 41043_TS_DEWT_032022.nc | 26-Oct-2024 11:36 | 1268003 | ||
| 41043_TS_DEWT_032023.nc | 26-Oct-2024 11:36 | 1263970 | ||
| 41043_TS_DEWT_032025.nc | 02-Apr-2025 09:25 | 1144212 | ||
| 41043_TS_DEWT_032026.nc | 21-Mar-2026 15:51 | 1019949 | ||
| 41043_TS_DEWT_042007.nc | 26-Oct-2024 11:36 | 5684762 | ||
| 41043_TS_DEWT_042008.nc | 26-Oct-2024 11:37 | 428497 | ||
| 41043_TS_DEWT_042009.nc | 26-Oct-2024 11:37 | 426778 | ||
| 41043_TS_DEWT_042010.nc | 26-Oct-2024 11:37 | 428882 | ||
| 41043_TS_DEWT_042011.nc | 26-Oct-2024 11:37 | 425896 | ||
| 41043_TS_DEWT_042012.nc | 26-Oct-2024 11:37 | 429545 | ||
| 41043_TS_DEWT_042013.nc | 26-Oct-2024 11:37 | 429568 | ||
| 41043_TS_DEWT_042014.nc | 26-Oct-2024 11:37 | 428183 | ||
| 41043_TS_DEWT_042015.nc | 26-Oct-2024 11:37 | 428427 | ||
| 41043_TS_DEWT_042016.nc | 26-Oct-2024 11:37 | 427591 | ||
| 41043_TS_DEWT_042017.nc | 26-Oct-2024 11:37 | 429399 | ||
| 41043_TS_DEWT_042018.nc | 26-Oct-2024 11:37 | 429820 | ||
| 41043_TS_DEWT_042019.nc | 26-Oct-2024 11:37 | 429816 | ||
| 41043_TS_DEWT_042020.nc | 26-Oct-2024 11:37 | 429793 | ||
| 41043_TS_DEWT_042021.nc | 26-Oct-2024 11:38 | 429734 | ||
| 41043_TS_DEWT_042022.nc | 26-Oct-2024 11:38 | 429831 | ||
| 41043_TS_DEWT_042023.nc | 26-Oct-2024 11:38 | 420271 | ||
| 41043_TS_DEWT_042025.nc | 01-May-2025 04:38 | 429595 | ||
| 41043_TS_DEWT_052007.nc | 26-Oct-2024 11:38 | 450420 | ||
| 41043_TS_DEWT_052008.nc | 26-Oct-2024 11:38 | 3843828 | ||
| 41043_TS_DEWT_052009.nc | 26-Oct-2024 11:38 | 2849436 | ||
| 41043_TS_DEWT_052010.nc | 26-Oct-2024 11:38 | 420616 | ||
| 41043_TS_DEWT_052011.nc | 26-Oct-2024 11:38 | 427821 | ||
| 41043_TS_DEWT_052012.nc | 26-Oct-2024 11:38 | 427152 | ||
| 41043_TS_DEWT_052013.nc | 26-Oct-2024 11:38 | 427933 | ||
| 41043_TS_DEWT_052014.nc | 26-Oct-2024 11:38 | 427557 | ||
| 41043_TS_DEWT_052015.nc | 26-Oct-2024 11:38 | 428684 | ||
| 41043_TS_DEWT_052016.nc | 26-Oct-2024 11:38 | 427261 | ||
| 41043_TS_DEWT_052017.nc | 26-Oct-2024 11:38 | 418912 | ||
| 41043_TS_DEWT_052018.nc | 26-Oct-2024 11:38 | 428542 | ||
| 41043_TS_DEWT_052019.nc | 26-Oct-2024 11:38 | 427056 | ||
| 41043_TS_DEWT_052020.nc | 26-Oct-2024 11:39 | 426647 | ||
| 41043_TS_DEWT_052021.nc | 26-Oct-2024 11:39 | 428852 | ||
| 41043_TS_DEWT_052022.nc | 26-Oct-2024 11:39 | 428783 | ||
| 41043_TS_DEWT_052023.nc | 26-Oct-2024 11:39 | 428809 | ||
| 41043_TS_DEWT_052025.nc | 01-Jun-2025 04:51 | 428807 | ||
| 41043_TS_DEWT_062007.nc | 26-Oct-2024 11:39 | 429133 | ||
| 41043_TS_DEWT_062008.nc | 26-Oct-2024 11:39 | 599403 | ||
| 41043_TS_DEWT_062009.nc | 26-Oct-2024 11:39 | 428804 | ||
| 41043_TS_DEWT_062010.nc | 26-Oct-2024 11:39 | 419949 | ||
| 41043_TS_DEWT_062011.nc | 26-Oct-2024 11:39 | 2753505 | ||
| 41043_TS_DEWT_062012.nc | 26-Oct-2024 11:39 | 4503739 | ||
| 41043_TS_DEWT_062013.nc | 26-Oct-2024 11:39 | 429088 | ||
| 41043_TS_DEWT_062014.nc | 26-Oct-2024 11:39 | 428804 | ||
| 41043_TS_DEWT_062015.nc | 26-Oct-2024 11:40 | 428194 | ||
| 41043_TS_DEWT_062016.nc | 26-Oct-2024 11:40 | 428934 | ||
| 41043_TS_DEWT_062017.nc | 26-Oct-2024 11:40 | 429582 | ||
| 41043_TS_DEWT_062018.nc | 26-Oct-2024 11:40 | 429681 | ||
| 41043_TS_DEWT_062019.nc | 26-Oct-2024 11:40 | 428925 | ||
| 41043_TS_DEWT_062020.nc | 26-Oct-2024 11:40 | 419901 | ||
| 41043_TS_DEWT_062021.nc | 26-Oct-2024 11:40 | 429819 | ||
| 41043_TS_DEWT_062022.nc | 26-Oct-2024 11:40 | 428994 | ||
| 41043_TS_DEWT_062023.nc | 26-Oct-2024 11:40 | 427618 | ||
| 41043_TS_DEWT_062025.nc | 01-Jul-2025 04:57 | 427930 | ||
| 41043_TS_DEWT_072007.nc | 26-Oct-2024 11:40 | 429496 | ||
| 41043_TS_DEWT_072008.nc | 26-Oct-2024 11:40 | 429298 | ||
| 41043_TS_DEWT_072009.nc | 26-Oct-2024 11:40 | 429833 | ||
| 41043_TS_DEWT_072010.nc | 26-Oct-2024 11:40 | 429141 | ||
| 41043_TS_DEWT_072011.nc | 26-Oct-2024 11:40 | 599903 | ||
| 41043_TS_DEWT_072012.nc | 26-Oct-2024 11:41 | 429789 | ||
| 41043_TS_DEWT_072013.nc | 26-Oct-2024 11:41 | 435805 | ||
| 41043_TS_DEWT_072014.nc | 26-Oct-2024 11:41 | 3415377 | ||
| 41043_TS_DEWT_072015.nc | 26-Oct-2024 11:41 | 3097272 | ||
| 41043_TS_DEWT_072016.nc | 26-Oct-2024 11:41 | 427218 | ||
| 41043_TS_DEWT_072017.nc | 26-Oct-2024 11:41 | 427988 | ||
| 41043_TS_DEWT_072018.nc | 26-Oct-2024 11:41 | 428510 | ||
| 41043_TS_DEWT_072019.nc | 26-Oct-2024 11:41 | 428037 | ||
| 41043_TS_DEWT_072020.nc | 26-Oct-2024 11:41 | 429279 | ||
| 41043_TS_DEWT_072021.nc | 26-Oct-2024 11:41 | 424201 | ||
| 41043_TS_DEWT_072022.nc | 26-Oct-2024 11:41 | 419010 | ||
| 41043_TS_DEWT_072023.nc | 26-Oct-2024 11:41 | 429221 | ||
| 41043_TS_DEWT_072025.nc | 01-Aug-2025 05:06 | 429430 | ||
| 41043_TS_DEWT_082007.nc | 26-Oct-2024 11:41 | 422581 | ||
| 41043_TS_DEWT_082008.nc | 26-Oct-2024 11:41 | 424180 | ||
| 41043_TS_DEWT_082009.nc | 26-Oct-2024 11:41 | 427156 | ||
| 41043_TS_DEWT_082010.nc | 26-Oct-2024 11:41 | 425492 | ||
| 41043_TS_DEWT_082011.nc | 26-Oct-2024 11:42 | 429490 | ||
| 41043_TS_DEWT_082012.nc | 26-Oct-2024 11:42 | 429495 | ||
| 41043_TS_DEWT_082013.nc | 26-Oct-2024 11:42 | 432344 | ||
| 41043_TS_DEWT_082014.nc | 26-Oct-2024 11:42 | 608777 | ||
| 41043_TS_DEWT_082015.nc | 26-Oct-2024 11:42 | 429497 | ||
| 41043_TS_DEWT_082016.nc | 26-Oct-2024 11:42 | 461466 | ||
| 41043_TS_DEWT_082017.nc | 26-Oct-2024 11:42 | 4117948 | ||
| 41043_TS_DEWT_082018.nc | 26-Oct-2024 11:42 | 427879 | ||
| 41043_TS_DEWT_082019.nc | 26-Oct-2024 11:42 | 428339 | ||
| 41043_TS_DEWT_082020.nc | 26-Oct-2024 11:42 | 429395 | ||
| 41043_TS_DEWT_082021.nc | 26-Oct-2024 11:42 | 428784 | ||
| 41043_TS_DEWT_082022.nc | 26-Oct-2024 11:42 | 429654 | ||
| 41043_TS_DEWT_082023.nc | 26-Oct-2024 11:42 | 428398 | ||
| 41043_TS_DEWT_082025.nc | 01-Sep-2025 04:56 | 429737 | ||
| 41043_TS_DEWT_092007.nc | 26-Oct-2024 11:42 | 427955 | ||
| 41043_TS_DEWT_092008.nc | 26-Oct-2024 11:42 | 425484 | ||
| 41043_TS_DEWT_092009.nc | 26-Oct-2024 11:42 | 429834 | ||
| 41043_TS_DEWT_092010.nc | 26-Oct-2024 11:42 | 429690 | ||
| 41043_TS_DEWT_092011.nc | 26-Oct-2024 11:43 | 429772 | ||
| 41043_TS_DEWT_092012.nc | 26-Oct-2024 11:43 | 429837 | ||
| 41043_TS_DEWT_092013.nc | 26-Oct-2024 11:43 | 429833 | ||
| 41043_TS_DEWT_092014.nc | 26-Oct-2024 11:43 | 429840 | ||
| 41043_TS_DEWT_092015.nc | 26-Oct-2024 11:43 | 903040 | ||
| 41043_TS_DEWT_092016.nc | 26-Oct-2024 11:43 | 429835 | ||
| 41043_TS_DEWT_092017.nc | 26-Oct-2024 11:43 | 458911 | ||
| 41043_TS_DEWT_092018.nc | 26-Oct-2024 11:43 | 4707180 | ||
| 41043_TS_DEWT_092019.nc | 26-Oct-2024 11:43 | 427716 | ||
| 41043_TS_DEWT_092020.nc | 26-Oct-2024 11:43 | 428277 | ||
| 41043_TS_DEWT_092021.nc | 26-Oct-2024 11:43 | 428440 | ||
| 41043_TS_DEWT_092022.nc | 26-Oct-2024 11:43 | 428406 | ||
| 41043_TS_DEWT_092023.nc | 26-Oct-2024 11:43 | 428758 | ||
| 41043_TS_DEWT_092025.nc | 01-Oct-2025 04:43 | 429307 | ||
| 41043_TS_DEWT_102007.nc | 26-Oct-2024 11:43 | 429067 | ||
| 41043_TS_DEWT_102008.nc | 26-Oct-2024 11:43 | 429253 | ||
| 41043_TS_DEWT_102009.nc | 26-Oct-2024 11:43 | 429436 | ||
| 41043_TS_DEWT_102010.nc | 26-Oct-2024 11:44 | 429491 | ||
| 41043_TS_DEWT_102011.nc | 26-Oct-2024 11:44 | 429453 | ||
| 41043_TS_DEWT_102012.nc | 26-Oct-2024 11:44 | 429497 | ||
| 41043_TS_DEWT_102013.nc | 26-Oct-2024 11:44 | 429490 | ||
| 41043_TS_DEWT_102014.nc | 26-Oct-2024 11:44 | 429495 | ||
| 41043_TS_DEWT_102015.nc | 26-Oct-2024 11:44 | 429483 | ||
| 41043_TS_DEWT_102016.nc | 26-Oct-2024 11:44 | 429490 | ||
| 41043_TS_DEWT_102017.nc | 26-Oct-2024 11:44 | 608875 | ||
| 41043_TS_DEWT_102018.nc | 26-Oct-2024 11:44 | 429495 | ||
| 41043_TS_DEWT_102019.nc | 26-Oct-2024 11:44 | 449461 | ||
| 41043_TS_DEWT_102020.nc | 26-Oct-2024 11:44 | 4281470 | ||
| 41043_TS_DEWT_102021.nc | 26-Oct-2024 11:44 | 429421 | ||
| 41043_TS_DEWT_102022.nc | 26-Oct-2024 11:44 | 428579 | ||
| 41043_TS_DEWT_102023.nc | 26-Oct-2024 11:44 | 429054 | ||
| 41043_TS_DEWT_102025.nc | 01-Nov-2025 07:39 | 428202 | ||
| 41043_TS_DEWT_112007.nc | 26-Oct-2024 11:45 | 429659 | ||
| 41043_TS_DEWT_112008.nc | 26-Oct-2024 11:45 | 425507 | ||
| 41043_TS_DEWT_112009.nc | 26-Oct-2024 11:45 | 429404 | ||
| 41043_TS_DEWT_112010.nc | 26-Oct-2024 11:45 | 429807 | ||
| 41043_TS_DEWT_112011.nc | 26-Oct-2024 11:45 | 429811 | ||
| 41043_TS_DEWT_112012.nc | 26-Oct-2024 11:45 | 429817 | ||
| 41043_TS_DEWT_112013.nc | 26-Oct-2024 11:45 | 429806 | ||
| 41043_TS_DEWT_112014.nc | 26-Oct-2024 11:45 | 429822 | ||
| 41043_TS_DEWT_112015.nc | 26-Oct-2024 11:45 | 429836 | ||
| 41043_TS_DEWT_112016.nc | 26-Oct-2024 11:45 | 429831 | ||
| 41043_TS_DEWT_112017.nc | 26-Oct-2024 11:45 | 430115 | ||
| 41043_TS_DEWT_112018.nc | 26-Oct-2024 11:45 | 603380 | ||
| 41043_TS_DEWT_112019.nc | 26-Oct-2024 11:45 | 429835 | ||
| 41043_TS_DEWT_112020.nc | 26-Oct-2024 11:45 | 447185 | ||
| 41043_TS_DEWT_112021.nc | 26-Oct-2024 11:45 | 4008346 | ||
| 41043_TS_DEWT_112022.nc | 26-Oct-2024 11:45 | 428160 | ||
| 41043_TS_DEWT_112023.nc | 26-Oct-2024 11:46 | 427407 | ||
| 41043_TS_DEWT_112024.nc | 17-Jan-2025 15:16 | 428635 | ||
| 41043_TS_DEWT_112025.nc | 01-Dec-2025 09:30 | 426217 | ||
| 41043_TS_DEWT_122007.nc | 26-Oct-2024 11:46 | 429409 | ||
| 41043_TS_DEWT_122008.nc | 26-Oct-2024 11:46 | 429444 | ||
| 41043_TS_DEWT_122009.nc | 26-Oct-2024 11:46 | 427169 | ||
| 41043_TS_DEWT_122010.nc | 26-Oct-2024 11:46 | 424856 | ||
| 41043_TS_DEWT_122011.nc | 26-Oct-2024 11:46 | 429802 | ||
| 41043_TS_DEWT_122012.nc | 26-Oct-2024 11:46 | 429809 | ||
| 41043_TS_DEWT_122013.nc | 26-Oct-2024 11:46 | 429807 | ||
| 41043_TS_DEWT_122014.nc | 26-Oct-2024 11:46 | 429834 | ||
| 41043_TS_DEWT_122015.nc | 26-Oct-2024 11:46 | 429437 | ||
| 41043_TS_DEWT_122016.nc | 26-Oct-2024 11:46 | 429834 | ||
| 41043_TS_DEWT_122017.nc | 26-Oct-2024 11:46 | 430848 | ||
| 41043_TS_DEWT_122018.nc | 26-Oct-2024 11:46 | 433727 | ||
| 41043_TS_DEWT_122019.nc | 26-Oct-2024 11:46 | 428178 | ||
| 41043_TS_DEWT_122020.nc | 26-Oct-2024 11:47 | 427442 | ||
| 41043_TS_DEWT_122021.nc | 26-Oct-2024 11:47 | 450802 | ||
| 41043_TS_DEWT_122022.nc | 26-Oct-2024 11:47 | 4491978 | ||
| 41043_TS_DEWT_122023.nc | 26-Oct-2024 11:47 | 421475 | ||
| 41043_TS_DEWT_122024.nc | 22-Jan-2025 16:43 | 429191 | ||
| 41043_TS_DEWT_122025.nc | 01-Jan-2026 09:10 | 428703 | ||